Location: Cuzcurrita-R�o Tir�n
(42.5415°N, 2.9642°W)
Time: 08:00:22
(UTC+00:00)

FREGAT/IRIS - Pass Details

Date: 27 February 2020
Orbit: 335 x 336 km, 96.9° (Epoch: 31 March)

Event Time Altitude Azimuth Distance (km) Brightness Sun altitude
Exits shadow 19:27:49 19° 12° (NNE) 909 4.4 -17.2°
Drops below altitude 10° 19:28:47 10° 3° (N) 1,289 5.2 -17.4°
Sets 19:30:45 0° 356° (N) 2,132 6.5 -17.8°
